Location: Anan
(43.3550°N, 0.8171°E)
Time: 08:30:26
(UTC+00:00)

Cosmos 1980 Rocket - Pass Details

Date: 14 May 2026
Orbit: 827 x 850 km, 71.0° (Epoch: 5 June)

Event Time Altitude Azimuth Distance (km) Brightness Sun altitude
Rises 19:51:48 0° 335° (NNW) 3,424 6.5 -6.9°
Reaches altitude 10° 19:54:16 10° 335° (NNW) 2,483 5.7 -7.2°
Maximum altitude 20:00:00 90° 46° (NE) 853 2.3 -8.1°
Drops below altitude 10° 20:05:39 10° 157° (SSE) 2,457 4.1 -8.9°
Enters shadow 20:06:24 - 157° (SSE) 2,742 4.3 -9.0°
